GFSGL_con_lsi_057.txt.gz
Lid_Strength_Index
14 14 14 14 14 14 14 14 14 14 15 15 15 15 15 16 16 16 16 16 16 16 16 17 17 16 15 14 14 14 14 14 15 14 13 13 16 16 15 14 13 14 13
14 14 14 14 14 14 15 14 14 14 13 14 14 14 15 15 15 15 16 16 16 16 16 16 16 15 17 16 15 14 13 13 15 16 14 14 16 16 15 15 15 14 14
14 14 14 14 15 15 15 14 14 14 14 14 14 14 14 14 14 14 15 15 15 15 16 16 15 15 15 15 15 14 13 12 13 15 15 14 14 17 16 16 16 15 14
15 14 15 14 14 14 14 14 14 14 14 14 14 14 14 14 14 14 14 15 15 15 15 15 15 14 14 14 14 14 14 13 13 13 14 15 15 15 16 16 16 15 15
14 14 14 14 13 14 14 14 14 14 14 13 13 13 13 13 13 13 13 14 14 14 14 14 14 14 13 13 13 13 13 14 14 14 14 14 14 15 16 15 15 13 15
15 14 14 14 14 14 15 15 15 15 15 15 15 15 14 13 11 10 11 12 12 13 13 13 13 13 13 12 12 11 11 13 13 14 14 15 14 13 13 14 14 15 16
15 15 15 15 16 16 15 16 16 16 16 16 16 16 16 16 13 12 12 13 13 13 13 12 12 12 12 12 11 11 11 11 11 12 13 13 13 12 12 12 13 14 14
17 17 16 16 16 16 16 17 17 17 17 18 18 18 18 17 14 14 14 15 16 15 15 14 14 13 12 12 13 13 13 13 13 12 13 13 12 11 11 11 10 12 12
16 15 16 16 18 17 19 18 18 19 20 20 19 20 20 20 16 15 15 17 17 17 16 16 15 15 13 12 13 14 14 14 12 11 10 9 8 8 8 10 11 12 13
16 16 17 17 19 20 20 21 21 21 21 21 21 21 21 22 18 16 16 17 18 17 16 15 14 14 13 12 14 15 16 15 14 14 13 11 10 9 7 8 9 11 11
17 18 18 19 20 21 21 21 22 23 22 23 23 22 22 21 21 17 15 16 17 17 17 17 15 13 12 12 12 14 14 13 13 13 13 12 11 10 9 8 8 8 10
19 19 21 22 22 21 23 23 23 23 24 24 24 24 22 21 19 17 15 14 14 16 16 16 16 14 13 12 13 12 12 12 14 14 14 13 12 11 10 8 8 7 7
23 24 24 23 22 22 23 23 24 24 24 25 24 24 23 21 21 17 15 14 13 15 15 14 12 12 11 11 12 12 13 16 16 17 15 14 13 10 9 8 8 7 7
27 25 22 22 22 22 21 22 24 25 25 24 24 24 22 20 18 17 16 15 13 14 13 14 13 12 11 12 13 13 14 15 15 16 16 15 13 12 9 8 8 8 8
24 22 22 22 22 22 21 22 23 22 21 21 20 19 19 19 18 14 13 13 12 11 11 11 13 14 16 17 17 17 17 16 16 15 15 15 15 13 9 8 8 8 9
24 22 22 21 21 21 22 22 18 18 17 16 15 16 17 14 13 12 11 10 9 9 11 13 13 14 15 15 15 16 16 16 16 16 15 15 13 12 10 9 8 8 9
26 22 21 21 21 22 22 23 24 20 17 17 16 15 14 13 13 12 11 10 10 11 15 15 16 16 16 16 16 16 16 16 15 15 14 14 11 11 11 11 9 8 9
26 22 23 22 23 23 23 23 24 24 24 22 18 17 15 15 14 12 12 13 19 17 17 17 17 16 16 16 16 17 17 17 16 16 16 15 14 12 11 10 9 9 9
25 25 24 22 23 24 24 24 24 24 23 23 22 19 19 16 14 15 15 20 20 20 19 18 17 17 15 14 15 17 18 18 18 17 15 14 13 11 10 8 8 8 9
28 23 22 24 24 25 25 25 24 24 24 23 23 22 21 18 21 21 21 21 21 20 19 19 17 17 15 14 15 15 15 16 16 17 16 14 12 10 9 9 9 10 11
27 27 24 26 27 27 26 26 25 24 24 23 23 22 15 21 22 21 21 21 21 20 19 18 17 16 15 15 15 13 13 13 13 13 12 12 11 11 10 10 10 11 12
29 29 28 30 27 27 28 26 25 25 24 24 24 23 17 22 21 20 20 20 20 18 18 17 17 16 15 14 14 14 14 14 13 13 13 12 12 12 11 12 12 13 14
27 28 28 29 29 27 28 28 27 26 25 25 25 24 23 22 21 20 20 20 19 18 17 17 17 16 15 15 14 14 14 14 13 12 13 13 13 13 13 13 14 14 15
27 28 29 30 30 30 31 28 27 27 27 26 26 25 24 22 21 20 20 19 19 19 17 17 16 15 15 14 14 14 14 14 14 14 14 14 15 15 15 16 16 16 17
29 28 30 31 33 31 31 30 28 30 29 28 26 25 25 23 23 21 20 20 20 19 18 17 16 15 15 15 14 14 14 14 14 14 14 15 16 16 17 17 18 18 19
28 28 28 30 31 32 34 32 30 29 28 27 26 26 25 24 23 21 21 20 20 20 20 19 18 17 15 14 14 12 12 13 15 15 15 16 16 17 17 18 18 19 19

GFSGL_con_lsi_060.txt.gz
Lid_Strength_Index
14 15 15 15 15 15 15 15 15 14 15 14 14 14 14 14 14 15 16 16 16 16 16 16 16 16 17 16 15 14 13 14 16 16 14 12 13 13 13 14 14 14 13
14 14 14 15 15 15 15 15 14 15 14 14 14 14 14 14 14 15 15 15 15 16 15 16 16 15 16 16 16 16 15 14 14 16 15 15 14 13 13 13 12 13 14
15 15 15 15 15 15 15 15 14 15 15 14 14 14 14 14 14 14 14 15 15 15 15 16 16 16 16 15 15 15 15 14 14 15 16 14 14 13 14 14 14 13 13
15 15 16 16 15 16 15 15 15 15 16 16 15 15 15 15 15 15 14 15 15 15 15 15 15 15 15 15 15 15 14 15 15 15 16 16 15 13 13 14 14 15 14
16 16 16 16 16 16 16 16 16 17 17 17 17 17 17 17 16 16 15 16 16 16 15 14 13 13 12 12 13 14 15 15 15 15 15 15 15 15 15 13 14 14 13
17 16 16 16 17 17 17 17 18 18 18 18 18 18 18 17 15 14 14 16 16 16 16 15 14 13 12 10 9 9 10 13 15 15 14 15 15 14 14 14 14 14 15
17 17 17 17 19 19 19 19 19 19 19 19 19 19 19 19 16 14 14 15 16 17 16 16 15 15 14 14 12 11 10 9 9 11 14 14 14 13 13 13 14 14 14
18 19 19 19 20 20 20 20 19 19 19 20 20 20 20 19 16 15 15 16 17 17 17 17 17 16 16 15 15 15 14 13 11 11 12 13 13 13 13 13 13 13 12
19 19 19 20 21 20 21 20 20 20 20 21 20 21 21 21 17 16 16 17 17 17 17 16 16 16 14 13 14 15 15 14 11 10 9 9 9 9 10 12 13 13 14
19 19 19 19 22 21 21 21 21 22 21 21 21 21 21 22 18 16 16 17 18 17 17 16 14 15 13 12 14 15 16 15 14 14 13 12 11 12 11 12 13 14 13
20 19 19 20 21 22 22 22 23 23 22 23 23 22 21 21 20 17 15 17 17 18 17 16 15 13 13 12 12 14 14 13 13 14 14 14 13 12 12 12 12 12 13
20 20 22 24 24 22 24 23 23 24 24 24 24 23 22 21 19 17 15 14 14 16 17 16 15 13 12 11 11 10 10 10 12 13 14 15 15 15 13 12 10 10 10
25 27 27 25 23 23 24 23 23 23 23 24 23 23 23 21 20 16 14 14 13 14 14 13 11 10 9 10 10 10 11 14 15 16 17 17 15 14 13 13 12 11 10
30 26 24 24 23 23 22 21 22 23 23 23 23 22 20 18 17 17 17 16 13 13 12 13 12 10 9 9 11 11 12 12 14 15 15 14 14 15 15 14 15 14 14
27 23 23 23 24 22 21 21 20 19 19 19 18 18 18 19 17 13 12 13 13 12 11 13 14 14 14 13 13 13 14 14 15 16 16 16 16 15 15 14 15 15 15
25 23 22 22 22 21 21 21 17 16 14 14 14 15 16 14 13 12 12 11 11 11 15 19 19 18 17 16 16 16 15 15 15 16 17 16 16 16 15 14 14 15 15
29 24 23 22 22 22 22 23 24 20 16 16 15 14 14 13 13 12 12 12 14 15 21 21 20 19 18 17 17 16 16 15 14 15 15 15 15 15 15 15 14 12 13
30 25 25 24 25 23 23 24 24 25 25 23 19 17 15 14 13 14 14 17 22 20 21 21 21 19 18 17 16 15 14 14 15 16 16 16 16 16 15 15 14 12 12
29 27 26 25 24 25 24 25 25 25 25 25 23 20 19 16 15 16 16 22 22 22 21 21 19 19 18 17 16 15 14 14 15 16 16 16 16 16 15 14 13 12 11
31 26 23 28 27 27 27 27 26 26 26 25 25 24 22 19 23 23 22 21 21 21 20 20 19 18 17 16 15 15 14 14 14 15 16 15 15 15 15 13 12 10 10
30 29 25 28 30 28 28 28 27 26 27 26 25 24 16 22 24 23 22 20 20 20 20 19 18 17 16 15 15 15 15 14 13 13 13 13 13 13 12 11 9 10 11
30 30 31 32 28 26 28 28 28 28 28 27 26 25 18 25 24 23 21 20 19 19 18 18 18 17 15 15 15 15 15 15 14 14 13 12 12 12 12 12 12 12 12
29 29 30 30 29 25 26 29 29 28 29 29 28 27 26 26 25 24 22 21 20 19 18 18 18 17 15 14 13 14 15 15 14 14 14 14 13 13 13 13 13 13 13
30 30 29 29 29 26 27 28 29 27 28 29 30 29 27 27 26 25 23 21 20 20 19 19 18 17 16 15 13 13 13 14 14 14 14 15 15 14 14 14 14 14 14
32 31 30 29 30 27 29 28 28 30 30 30 28 29 27 27 26 25 23 21 20 20 19 19 18 18 17 16 14 13 12 14 14 14 14 14 15 16 16 16 16 16 16
32 30 28 28 27 27 28 28 29 30 30 29 29 28 27 26 25 25 23 22 21 20 19 18 18 18 18 16 14 12 12 12 14 15 15 15 16 16 16 17 17 18 18

GFSGL_con_lsi_063.txt.gz
Lid_Strength_Index
14 14 14 14 14 14 14 14 14 14 14 14 14 14 14 14 14 14 14 14 14 14 14 14 14 14 14 14 13 13 14 13 15 15 13 12 11 11 11 10 10 10 11
14 14 14 14 14 14 15 14 14 14 14 14 14 14 15 14 14 14 15 14 15 15 14 14 14 14 14 14 14 14 14 13 14 16 14 14 13 12 11 11 11 10 10
15 15 15 15 15 15 15 15 15 15 16 16 16 16 16 16 16 16 16 15 15 14 14 14 14 14 14 14 14 14 14 14 13 14 15 14 13 13 12 12 11 11 10
15 15 16 15 15 15 15 16 16 16 17 17 17 17 17 17 17 17 17 16 16 16 16 15 15 15 14 14 14 14 14 14 14 14 14 14 14 13 13 13 13 11 12
16 16 16 16 16 16 16 17 17 17 17 18 18 18 19 19 18 18 17 17 17 17 16 16 16 15 14 14 14 13 12 13 13 14 15 15 15 15 14 13 13 12 11
16 16 16 16 17 17 17 18 18 19 19 19 20 20 20 19 17 16 16 16 16 17 17 17 16 15 15 14 13 12 12 13 13 13 12 13 14 14 13 13 13 14 14
16 17 17 18 19 19 19 20 20 20 20 21 21 20 21 20 17 15 15 16 17 17 17 17 17 16 16 16 15 14 13 13 12 13 15 14 13 11 11 13 13 14 15
17 18 18 19 20 20 21 21 21 21 21 21 21 20 20 19 16 15 15 16 17 17 17 17 17 17 16 15 15 15 14 13 13 13 13 13 12 12 11 11 12 13 14
18 18 19 20 22 21 23 22 21 21 21 21 20 20 21 20 17 16 15 16 16 16 16 15 16 16 14 13 14 15 14 13 12 11 11 10 10 10 10 11 12 13 14
18 19 20 20 23 23 22 22 21 21 21 21 21 21 21 21 18 16 15 15 17 16 16 15 14 14 12 11 13 14 15 14 13 13 13 12 12 12 11 12 13 15 15
20 20 20 21 22 22 22 21 22 22 22 23 22 21 21 20 19 16 14 15 16 16 16 15 14 12 12 11 10 12 13 12 12 13 13 13 12 12 12 11 12 13 15
20 20 22 24 23 21 25 24 23 23 24 24 23 22 19 18 17 15 14 13 13 15 15 14 14 12 11 10 10 9 9 9 11 13 14 14 13 12 12 11 11 11 12
23 26 27 24 23 22 25 24 23 23 23 23 22 21 20 17 16 13 12 12 12 13 13 12 10 10 9 10 10 9 10 11 12 13 13 13 12 12 12 12 12 12 12
28 25 23 24 23 23 21 21 22 22 22 21 20 19 17 16 15 15 14 13 12 12 12 12 12 13 13 13 14 13 13 13 13 13 13 12 12 12 13 12 14 13 14
25 23 22 22 23 22 21 20 20 18 18 17 16 16 16 17 16 12 12 12 12 12 14 17 19 19 18 17 16 16 15 15 14 13 14 14 14 14 14 13 14 15 16
23 22 22 22 22 21 21 21 17 15 14 13 12 13 14 13 12 11 11 11 12 13 20 22 22 20 19 19 18 18 16 16 14 14 14 14 15 15 15 14 14 15 15
25 23 22 21 22 22 22 22 23 20 16 15 14 13 13 13 12 12 12 12 15 16 22 22 22 20 19 19 18 17 17 15 13 13 13 14 15 15 15 15 14 14 14
28 24 24 23 23 23 23 23 23 24 24 22 19 16 14 14 13 13 13 16 21 20 22 22 20 19 19 18 17 16 15 15 14 13 13 14 15 16 16 15 15 15 14
26 26 25 25 24 24 24 24 24 24 25 24 23 20 19 16 15 16 16 22 22 21 20 20 19 19 18 18 17 15 15 15 14 14 13 14 15 14 15 15 15 14 14
28 25 25 26 25 25 25 25 25 25 24 25 24 24 23 19 22 23 22 22 21 21 20 19 19 18 18 17 16 15 14 15 15 14 13 13 13 14 15 14 14 14 13
27 28 25 26 27 27 27 27 25 25 24 25 25 24 16 21 24 25 24 23 22 21 20 19 19 18 17 16 15 15 14 15 15 14 14 13 12 12 12 12 12 12 11
27 28 30 28 27 27 27 26 25 25 24 25 25 25 18 26 26 26 25 24 22 21 20 19 19 18 17 17 16 15 14 14 15 15 14 14 13 13 12 12 12 12 12
28 27 28 27 26 28 27 27 27 26 25 25 26 26 26 26 26 26 25 24 23 21 19 19 19 18 17 17 16 14 14 14 15 14 15 14 14 14 13 13 13 13 13
25 26 25 25 26 28 28 27 26 25 24 25 27 27 27 27 27 26 25 24 23 21 20 19 18 19 18 17 16 14 13 12 14 14 14 14 15 15 14 14 14 14 14
26 25 24 25 27 28 29 28 26 26 26 26 26 28 27 28 27 26 25 24 23 22 22 20 18 17 17 17 16 15 12 12 13 14 14 14 15 15 15 16 16 15 15
23 24 26 26 27 27 28 27 27 26 26 26 28 29 28 28 27 27 26 25 24 24 24 21 20 20 18 16 15 13 11 10 12 14 14 15 16 16 16 16 16 16 17

GFSGL_con_lsi_069.txt.gz
Lid_Strength_Index
12 12 12 12 12 12 12 13 13 13 14 14 14 15 15 15 15 15 15 15 15 15 14 14 14 13 13 13 12 12 12 13 15 14 13 12 13 13 12 11 11 11 11
12 12 12 12 12 13 14 14 14 15 14 15 15 15 16 16 16 16 16 15 16 16 15 15 15 14 15 14 14 14 14 14 14 16 14 13 13 12 12 13 12 11 12
12 12 13 13 13 14 15 15 15 15 15 16 16 16 16 16 17 17 17 16 16 15 15 15 15 15 15 15 15 15 15 14 15 15 16 14 14 13 13 12 12 12 11
12 13 13 14 14 15 15 16 16 16 17 17 16 16 17 17 17 16 16 16 16 15 15 15 15 15 15 16 16 16 15 16 15 16 16 16 15 14 13 14 13 13 13
13 14 15 15 15 16 16 16 17 16 16 17 17 17 17 17 16 16 16 16 16 15 15 15 15 14 14 14 14 14 14 15 15 16 16 16 16 15 15 14 15 15 14
14 15 15 16 16 17 17 17 16 17 17 17 17 17 17 17 15 15 15 16 16 16 16 15 14 14 14 13 12 12 13 14 15 15 15 16 15 14 13 14 14 15 17
15 16 16 17 17 16 16 17 18 18 17 17 17 17 17 17 15 14 14 15 15 15 15 15 15 14 14 14 13 12 12 11 11 12 14 14 14 13 13 14 14 14 14
16 16 17 17 17 17 18 18 18 17 18 18 17 17 17 16 15 14 13 14 15 14 14 14 14 14 13 13 13 13 13 13 12 12 13 13 12 11 12 12 12 12 11
16 17 17 17 17 18 19 18 18 18 18 18 17 17 17 17 15 14 13 14 14 14 13 13 13 13 11 10 11 12 12 12 10 9 9 8 8 8 8 10 12 13 14
16 16 16 17 18 19 17 18 17 18 17 17 17 17 17 17 15 14 13 13 14 13 12 12 10 11 9 8 10 11 12 12 11 10 10 9 9 9 8 9 11 13 14
15 16 17 17 18 18 18 17 18 18 17 18 18 16 16 16 15 13 11 12 13 13 12 12 10 9 8 8 9 11 12 10 11 12 12 12 12 11 10 9 9 10 12
16 17 17 19 18 18 19 19 19 19 19 18 17 16 14 14 13 12 11 10 10 11 12 11 11 9 9 10 11 10 10 11 15 15 15 15 14 13 11 10 10 10 10
17 18 19 19 18 18 19 19 18 17 17 16 16 16 15 13 12 11 11 10 9 10 10 10 9 10 11 12 12 11 13 15 16 17 17 16 14 12 11 11 11 10 11
19 19 19 20 19 19 17 16 16 16 16 15 15 15 14 13 12 12 12 10 9 9 9 11 12 12 12 13 15 14 15 16 17 17 16 14 13 13 13 12 12 12 13
18 18 18 18 18 16 16 15 15 14 14 15 15 13 13 13 12 10 9 10 10 9 11 14 15 15 16 16 16 16 16 16 16 15 15 15 14 13 13 12 12 12 13
18 18 17 16 16 16 16 15 13 12 12 11 10 10 11 10 9 9 8 8 8 8 13 16 16 16 17 17 17 17 16 15 15 15 15 14 14 14 14 13 12 13 13
16 16 15 16 15 16 16 16 16 13 12 11 10 10 10 10 9 9 8 8 9 11 16 17 17 17 17 17 17 16 16 15 14 14 14 14 13 14 14 14 13 13 13
16 16 15 16 15 15 15 15 15 16 16 15 13 12 12 11 10 10 9 10 16 15 16 17 17 17 17 17 17 16 16 15 15 15 14 13 14 14 15 14 14 14 13
17 17 16 15 15 16 16 16 16 17 17 17 16 14 13 12 12 10 11 16 17 17 17 17 17 17 17 17 16 16 16 16 16 15 14 14 14 14 15 14 14 13 13
17 16 17 16 17 18 17 17 17 17 17 17 17 17 16 17 17 14 16 17 17 18 18 18 18 17 17 17 16 16 16 16 16 15 14 14 14 15 15 14 14 14 13
17 18 18 18 17 17 17 17 17 17 18 18 17 16 14 16 15 16 17 18 18 18 18 18 18 18 18 17 17 16 16 16 15 15 14 14 15 15 14 14 14 13 13
17 17 19 19 18 18 18 18 18 18 18 18 18 17 13 16 17 18 18 18 18 18 18 19 19 18 18 18 18 17 17 16 15 14 14 14 14 14 14 14 15 14 14
18 18 19 19 19 19 20 20 19 19 19 18 18 18 17 18 18 18 19 19 18 18 19 20 20 20 19 19 18 18 17 17 15 15 14 15 14 14 15 15 15 15 15
18 19 19 19 19 19 19 19 19 19 19 19 19 18 18 18 18 19 20 20 19 19 21 21 20 21 21 20 19 19 19 17 15 15 15 15 15 15 15 15 15 15 15
18 19 19 19 20 19 19 19 19 19 19 18 18 18 18 18 19 20 20 20 20 21 22 22 22 22 22 23 22 22 20 18 17 15 15 18 17 16 15 15 15 15 15
20 20 20 20 20 20 20 20 20 20 19 19 19 19 19 19 19 20 21 22 21 23 23 23 23 24 23 22 22 20 17 16 16 14 12 15 19 19 18 17 16 16 16

GFSGL_con_lsi_072.txt.gz
Lid_Strength_Index
15 15 15 15 14 15 15 16 16 17 17 17 17 17 17 17 17 18 18 18 18 18 18 18 18 17 17 17 16 16 16 16 18 17 15 14 15 14 14 13 12 12 12
14 15 15 15 16 16 17 17 17 18 18 18 18 18 18 18 18 19 19 19 19 19 18 18 18 16 17 17 16 16 16 16 17 18 17 16 16 15 15 15 13 12 12
15 15 16 16 17 17 18 18 18 18 18 19 19 19 19 18 19 19 19 18 18 18 17 17 17 17 17 17 17 17 17 16 16 17 18 16 15 15 15 15 15 14 12
15 16 16 17 17 18 18 18 18 19 19 20 19 19 18 19 18 18 17 17 17 17 16 16 16 16 16 16 16 16 15 16 15 16 16 16 16 14 14 15 16 14 15
15 16 17 17 17 18 18 18 19 19 19 19 19 19 19 19 18 17 17 17 17 17 16 16 15 15 14 14 14 14 14 15 15 16 16 16 16 16 15 14 15 14 14
16 17 17 18 18 18 18 19 19 19 19 19 19 19 19 18 16 15 15 16 16 16 17 16 15 15 14 12 12 12 12 14 15 16 16 16 14 14 13 14 14 15 16
16 16 17 18 18 19 19 19 19 20 19 20 20 19 19 18 16 15 14 15 16 16 16 15 14 14 14 14 13 11 11 10 10 12 14 14 14 13 13 14 14 14 14
17 17 18 18 19 19 19 19 19 19 20 20 19 19 19 18 15 15 14 15 15 15 15 14 14 14 13 12 12 12 12 12 11 11 11 11 11 11 12 12 12 12 12
17 18 18 18 19 20 20 19 20 20 20 20 18 20 20 19 15 14 14 15 15 14 13 13 13 13 11 9 10 11 11 11 9 8 8 7 7 7 8 10 12 13 14
16 16 17 18 18 19 19 20 20 21 20 18 18 20 19 22 16 14 13 14 17 14 13 12 10 11 9 9 11 12 14 13 12 11 12 12 11 11 9 11 12 14 14
15 17 18 18 19 20 21 21 22 23 20 23 21 20 20 18 18 13 11 12 14 14 13 12 11 10 9 9 8 12 12 10 13 15 15 14 14 13 13 12 11 12 14
17 18 19 21 19 20 23 23 24 25 26 26 24 22 18 16 14 12 10 10 10 13 12 11 12 9 9 8 9 9 9 11 16 16 17 17 16 15 14 13 12 12 11
18 20 21 22 21 21 24 23 24 24 23 22 20 21 19 16 16 11 10 10 9 10 11 9 9 9 9 10 10 10 12 16 16 17 17 17 15 14 13 13 12 11 11
20 21 22 22 22 22 20 20 21 21 21 20 20 19 19 16 15 15 15 13 10 10 9 13 11 10 10 11 14 13 15 15 16 17 16 15 14 14 14 13 14 13 13
20 20 21 21 21 21 20 20 19 20 19 22 21 21 21 21 16 11 10 13 13 10 10 21 20 18 15 16 16 16 15 16 16 16 16 16 15 14 14 13 13 14 15
20 20 20 19 20 19 19 20 13 13 12 11 11 14 15 10 9 8 8 7 7 7 15 23 20 18 16 17 17 17 16 16 16 15 15 15 16 15 14 14 14 15 16
18 19 18 18 19 20 20 20 21 17 10 10 9 9 9 9 8 8 8 8 7 10 22 24 20 18 17 17 17 17 17 16 15 15 15 16 15 14 15 15 15 15 16
20 19 18 18 19 20 20 19 20 22 22 21 14 11 10 9 9 9 9 9 20 20 25 23 20 21 17 18 18 18 17 17 16 16 16 15 14 15 15 16 16 16 15
20 20 20 20 21 20 20 20 20 21 24 25 23 17 15 11 10 10 9 18 25 26 25 22 22 20 17 18 19 18 18 18 17 17 16 15 14 15 15 16 15 15 15
21 21 20 20 21 21 21 20 20 22 23 24 23 21 21 22 25 22 19 21 22 21 22 22 23 22 19 20 19 19 18 18 18 17 16 15 14 15 15 15 15 16 15
20 20 20 21 21 22 20 20 20 21 21 21 20 20 14 18 19 19 18 21 19 20 21 22 23 23 21 21 21 20 19 19 18 17 16 16 15 16 15 15 15 15 15
21 22 23 24 22 21 21 20 20 21 21 22 22 21 13 15 20 21 20 18 19 19 20 22 21 20 19 22 24 21 20 20 19 18 17 17 15 16 16 16 16 16 16
21 22 24 24 22 20 23 25 26 26 26 26 25 24 23 19 19 18 18 19 20 20 20 22 22 20 19 23 25 23 21 21 20 19 18 18 16 16 17 17 16 16 16
23 23 22 24 25 27 28 29 28 25 25 25 27 25 21 20 19 19 19 19 20 21 21 22 23 22 20 23 24 24 24 22 21 20 19 18 16 15 18 18 18 17 16
25 25 25 26 29 28 29 28 26 28 27 25 24 23 21 20 19 20 19 20 20 21 21 22 24 22 24 26 25 26 23 22 22 20 19 18 15 16 19 20 20 19 18
26 25 25 27 29 30 29 29 29 28 28 26 24 23 23 21 21 20 20 20 21 22 22 23 25 25 26 26 26 24 21 18 18 18 17 15 15 15 19 21 23 24 21

GFSGL_con_lsi_075.txt.gz
Lid_Strength_Index
15 15 15 15 15 16 16 17 18 18 18 18 18 18 19 19 19 20 20 20 20 20 19 19 18 18 18 18 18 18 18 17 19 18 17 16 16 16 15 15 14 14 14
15 15 15 16 16 17 18 18 18 19 19 19 19 19 19 20 20 20 20 20 20 20 20 19 19 18 19 18 18 18 18 17 18 19 17 17 17 16 16 16 15 14 14
15 16 16 17 18 18 18 19 18 19 19 19 19 20 20 20 20 20 20 20 20 20 19 19 19 19 18 18 18 18 17 16 16 17 18 16 16 15 15 14 14 14 13
16 16 17 18 18 18 18 18 18 19 19 20 20 20 20 20 20 19 19 19 19 18 18 18 18 17 17 17 16 16 16 16 16 16 16 15 15 14 14 15 15 13 14
16 16 17 18 18 18 18 18 18 19 19 19 20 20 20 20 19 18 17 18 18 19 18 17 16 16 14 14 15 15 15 16 15 15 15 15 15 15 15 13 14 14 13
16 17 17 17 17 17 18 18 18 19 19 19 20 20 20 19 17 16 16 17 18 18 17 17 16 16 15 13 13 12 12 13 14 14 14 15 14 13 13 13 14 14 15
16 17 17 17 18 18 18 18 19 19 20 20 20 20 20 20 17 16 16 16 17 17 16 16 15 15 15 15 13 11 10 9 9 11 13 13 13 12 12 12 12 13 13
17 17 17 17 18 18 18 19 20 19 20 20 20 20 20 19 16 16 15 16 16 16 16 15 15 15 14 12 11 11 11 11 11 11 11 11 10 9 10 10 11 12 11
17 17 17 17 18 19 20 20 20 20 20 20 20 20 20 21 17 15 15 16 15 15 15 14 14 13 11 9 10 13 13 13 11 9 8 9 8 9 10 11 14 15 15
16 17 17 17 18 19 19 19 19 19 19 19 19 21 21 23 16 15 14 15 18 15 14 13 11 11 9 8 11 14 16 14 11 13 13 12 11 12 11 12 13 16 16
15 16 16 17 17 18 18 19 20 21 20 23 22 22 22 20 19 14 12 13 15 15 13 12 11 9 8 8 8 14 13 9 13 15 15 15 14 14 13 13 13 14 16
15 16 17 17 17 19 20 22 22 23 25 26 26 23 20 19 16 14 12 10 10 16 15 11 11 8 8 8 10 9 8 11 16 16 16 16 15 15 14 13 13 13 12
16 17 17 19 19 21 22 23 23 24 23 23 22 22 21 18 18 12 10 10 10 11 11 10 7 8 9 11 10 9 12 16 16 17 17 15 15 14 13 13 12 12 12
16 18 20 20 21 22 21 21 22 23 22 21 21 20 21 19 17 17 16 16 12 11 10 13 11 10 11 12 15 13 14 14 15 16 15 15 14 14 15 14 14 13 14
17 19 20 20 20 21 21 21 21 20 19 22 21 22 22 21 18 13 14 15 15 13 11 19 22 20 19 17 18 16 15 15 16 16 16 16 15 15 15 13 14 14 16
19 20 20 20 21 21 21 21 15 15 14 12 12 18 19 13 11 9 8 7 7 7 14 24 23 21 19 18 19 17 16 16 16 16 16 16 16 16 15 14 14 15 16
17 19 20 20 20 20 20 20 20 18 11 11 10 9 9 9 8 7 7 7 7 8 22 25 24 22 20 18 18 17 17 16 16 17 17 17 17 16 15 15 15 15 16
21 19 19 19 19 19 19 19 20 21 20 20 13 10 9 9 8 8 7 8 16 19 23 25 24 24 21 20 19 18 18 17 17 18 17 18 17 17 16 16 16 16 16
20 19 19 19 19 19 20 22 23 25 26 26 23 16 14 12 11 10 9 16 20 21 20 22 22 23 22 22 21 21 21 19 19 19 19 18 18 17 16 16 16 16 16
21 20 20 20 22 22 22 22 24 25 26 25 22 19 19 23 25 22 20 20 20 19 19 21 21 21 20 22 23 23 22 21 21 21 19 19 18 17 16 16 16 17 16
21 22 22 22 22 22 23 23 22 21 22 21 21 21 15 20 21 23 23 22 19 18 18 19 19 21 20 22 25 25 24 21 22 23 20 19 18 19 17 16 17 17 17
22 22 22 22 23 23 23 21 21 23 23 23 25 27 15 24 26 27 25 22 20 19 18 19 19 20 19 21 24 26 25 23 24 26 22 21 20 19 18 16 17 18 18
22 23 23 23 22 23 24 26 26 27 28 30 30 29 30 28 26 28 25 21 19 19 18 19 20 20 19 21 24 25 24 22 23 28 23 22 22 20 18 17 17 19 19
22 22 22 23 24 26 26 27 29 28 30 30 31 30 29 28 28 26 24 21 19 19 20 20 20 21 20 21 22 26 26 24 24 23 26 24 22 20 19 16 17 18 20
23 23 24 24 26 27 28 30 29 31 31 30 29 30 30 29 28 26 25 24 23 21 21 21 21 22 22 24 23 26 26 23 24 23 24 24 22 21 19 17 18 19 21
23 24 26 27 28 28 28 28 30 29 31 29 28 29 29 29 27 27 26 25 24 24 22 21 22 23 23 24 25 24 22 19 20 21 21 21 20 18 17 17 19 19 20